Location: Newark
(38.2000°N, 48.6000°E)
Time: 12:27:05
(UTC+00:00)

Hubble Space Telescope - Visible Passes

Search period start: 22 July 2019 00:00
Search period end: 01 August 2019 00:00
Orbit: 536 x 540 km, 28.5° (Epoch: 22 July)

Date Brightness Start Highest point End Pass type
(mag) Time Alt. Az. Time Alt. Az. Time Alt. Az.
28 Jul 3.1 00:35:36 10° S 00:36:28 11° SSE 00:37:20 10° SSE visible
29 Jul 2.9 00:24:41 11° S 00:25:47 13° SSE 00:27:36 10° SE visible
30 Jul 2.8 00:14:39 14° S 00:15:08 14° SSE 00:17:25 10° SE visible
31 Jul 2.7 00:04:38 16° SSE 00:04:38 16° SSE 00:07:06 10° SE visible
31 Jul 2.7 23:54:38 17° SSE 23:54:38 17° SSE 23:56:40 10° SE visible
